Location: Mont Hereford
(45.0826°N, 71.6017°W)
Time: 04:07:31
(UTC-04:00)

Envisat - Visible Passes

Search period start: 21 July 2018 00:00
Search period end: 31 July 2018 00:00
Orbit: 764 x 766 km, 98.2° (Epoch: 20 July)

Date Brightness Start Highest point End Pass type
(mag) Time Alt. Az. Time Alt. Az. Time Alt. Az.
22 Jul 6.1 21:39:06 10° W 21:39:57 10° W 21:40:48 10° WNW visible
23 Jul 5.4 20:58:46 10° SW 21:02:45 23° W 21:06:47 10° NW visible
25 Jul 5.8 21:26:10 10° WSW 21:28:37 13° W 21:31:06 10° WNW visible
26 Jul 5.0 20:47:08 10° SSW 20:51:30 29° W 20:55:54 10° NW visible
28 Jul 5.6 21:14:04 10° SW 21:17:19 17° W 21:20:36 10° NW visible
